Regional Weather Roundup
Issued by NWS

Home | Current Version | Previous Version | Text Only | Print | Product List | Glossary On
Versions: 1 2 3 4 5 6 7 8 9 10 11 12 13 14 15 16 17 18 19 20 21 22 23 24 25 26 27 28 29 30 31 32 33 34 35 36 37 38 39 40 41 42 43 44 45 46 47 48 49 50
000
ASUS43 KMPX 121010
RWRMN
WEATHER ROUNDUP FOR MINNESOTA
NATIONAL WEATHER SERVICE TWIN CITIES/CHANHASSEN MN
400 AM CST FRI FEB 12 2016


NOTE: "FAIR" INDICATES FEW OR NO CLOUDS BELOW 12,000 FEET WITH NO
SIGNIFICANT WEATHER AND/OR OBSTRUCTIONS TO VISIBILITY. N/A MEANS
CURRENT SKY AND/OR WEATHER CONDITIONS ARE NOT AVAILABLE.

MNZ060>063-068>070-121100-
   Twin Cities Metro

CITY           SKY/WX    TMP DP  RH WIND       PRES   REMARKS
TWIN CITIES    PTCLDY    13   6  74 NW13      30.23R WCI  -2
ST PAUL        CLEAR     13   6  74 NW14      30.24R WCI  -2
CRYSTAL        CLEAR     11   5  77 NW10      30.22R WCI  -3
BLAINE         CLEAR     12   7  79 NW10      30.22R WCI  -1
LAKEVILLE      CLOUDY    12   9  85 NW14      30.21S WCI  -3
EDEN PRAIRIE   PTCLDY    14   6  70 NW13      30.22R WCI   0
SOUTH ST PAUL  CLEAR     14   7  75 NW10      30.22S WCI   1
LAKE ELMO      FAIR      14   9  79 NW9       30.21R WCI   2
$$
MNZ001>005-007-008-013>017-022>024-027-028-121100-
   Northwest Minnesota

CITY           SKY/WX    TMP DP  RH WIND       PRES   REMARKS
BEMIDJI        CLEAR     -4  -8  81 NW10      30.26R WCI -21
HALLOCK        CLEAR     -2  -9  71 N14       30.43R WCI -21
ROSEAU         CLOUDY    -8 -13  77 NW10      30.35R WCI -26
WARROAD        CLEAR     -8 -13  77 W8        30.33R WCI -23
THIEF RVR FALL CLEAR     -2 -15  55 NW14      30.36R WCI -21
CROOKSTON      CLEAR      0  -6  78 N17       30.42R WCI -21
FOSSTON        CLEAR     -6  -9  84 NW7       30.32R WCI -20
DETROIT LAKES  CLEAR      3  -2  78 NW14      30.32R WCI -15
MOORHEAD       CLEAR      3  -2  78 N12       30.40R WCI -13
PARK RAPIDS    CLEAR      1  -5  75 NW9       30.25R WCI -14
MAHNOMEN       FAIR      -4  -9  79 NW12      30.33R WCI -22
$$
MNZ006-009>011-018-025>026-121100-
   North Central Minnesota

CITY           SKY/WX    TMP DP  RH WIND       PRES   REMARKS
BAUDETTE       CLEAR     -7 -14  71 NW15G24   30.26R WCI -28
FLAG ISLAND    CLEAR     -9 -15  77 NW18      30.29R WCI -33
INTL FALLS     PTCLDY    -5 -11  75 NW12      30.20R WCI -23
WASKISH        CLEAR     -6  -9  84 NW7       30.27R WCI -20
LONGVILLE      MOCLDY     1  -2  85 NW8G16    30.23R WCI -12
GRAND RAPIDS   PTCLDY     1  -4  78 NW15      30.18R WCI -18
CRANE LAKE     PTCLDY    -4  -9  77 NW5       30.18R WCI -15
ORR            CLEAR     -4 -11  71 NW8       30.13R WCI -19
COOK           PTCLDY    -2  -8  78 NW6       30.15R WCI -14
WALKER         FAIR       0  -6  77 NW9       30.24R WCI -16
$$
MNZ012-019>021-037-121100-
   Northeast Minnesota

CITY           SKY/WX    TMP DP  RH WIND       PRES   REMARKS
DULUTH         PTCLDY     2  -5  72 NW15      30.11R WCI -17
ELY            PTCLDY    -2  -8  78 W10G18    30.09R WCI -19
HIBBING        PTCLDY    -1  -7  75 NW18      30.15R WCI -22
EVELETH        CLEAR      3  -6  66 NW14G22   30.13S WCI -15
DULUTH HARBOR  CLEAR      9  -2  61 W13G21    30.21R WCI  -7
TWO HARBORS    CLEAR      5  -4  66 NW9       30.09S WCI  -9
SILVER BAY     CLEAR      3  -6  66 W9        30.07S WCI -11
GRAND MARAIS     N/A      5  -4  66 W5        30.09R WCI  -4
G MARAIS ARPRT CLEAR     -2  -9  71 W12G18    29.94S WCI -20
$$
MNZ029>031-032-039>041-046>048-054>057-064-121100-
   West Central Minnesota

CITY           SKY/WX    TMP DP  RH WIND       PRES   REMARKS
FERGUS FALLS   PTCLDY     5   1  85 N12G21    30.38R WCI -11
WHEATON        CLOUDY    12   9  85 NW14      30.38R WCI  -3
MORRIS         CLOUDY    10   7  85 N18       30.31R WCI  -8
ALEXANDRIA     CLEAR      4   0  83 NW9       30.27R WCI -10
ELBOW LAKE     FAIR       7   2  82 NW13G20   30.33R WCI -10
WADENA         CLEAR      1  -2  85 NW10      30.26S WCI -14
GLENWOOD       CLEAR      3   1  92 NW12      30.27R WCI -13
APPLETON       CLOUDY    12   7  79 NW14      30.33R WCI  -3
BENSON         CLOUDY     9   5  85 N10       30.31R WCI  -6
ORTONVILLE     FLURRIES  10   5  79 NW9       30.34R WCI  -2
MADISON        CLOUDY    12   7  79 NW12      30.35R WCI  -2
WILLMAR        CLOUDY    12   9  85 NW14      30.30R WCI  -3
$$
MNZ033>034-036-042>043-049>051-058-059-121100-
   Central Minnesota

CITY           SKY/WX    TMP DP  RH WIND       PRES   REMARKS
ST CLOUD       CLEAR      5   0  79 NW10      30.24R WCI -10
SAUK CENTRE    FAIR       4   0  83 NW12      30.26R WCI -12
PAYNESVILLE    PTCLDY     8   4  83 NW9       30.28R WCI  -5
AITKIN         MOCLDY     9  -2  61 NW7       30.20R WCI  -3
PINE RIVER     MOCLDY     3  -4  72 NW7       30.27R WCI  -9
BRAINERD       CLEAR      5  -6  60 NW16      30.23R WCI -14
STAPLES        CLEAR      3  -2  78 NW13      30.25R WCI -14
LONG PRAIRIE   FAIR       3   0  85 W8        30.25R WCI -10
LITTLE FALLS   CLEAR      9   1  72 NW6       30.25R WCI  -1
LITCHFIELD     PTCLDY    10   7  85 NW12G17   30.27R WCI  -4
BUFFALO        CLEAR     10   5  80 W9        30.26R WCI  -3
MAPLE LAKE     CLEAR     10   6  83 NW8       30.25R WCI  -1
$$
MNZ037-044-045-052-053-121100-
   East Central Minnesota

CITY           SKY/WX    TMP DP  RH WIND       PRES   REMARKS
PRINCETON      CLEAR      9   1  72 W10       30.23R WCI  -6
MORA           PTCLDY    10   1  67 NW9       30.22R WCI  -2
CAMBRIDGE      CLEAR     10   1  67 W8        30.21R WCI  -1
RUSH CITY      PTCLDY    10   1  67 NW7       30.21R WCI  -1
MOOSE LAKE     CLEAR      9  -2  61 NW7       30.17R WCI  -3
HINCKLEY       FAIR      10   1  67 NW10G17   30.19R WCI  -3
CLOQUET        MOCLDY     3  -2  78 NW8       30.15R WCI -10
MCGREGOR       MOCLDY     9   1  72 NW15      30.20R WCI  -8
$$
MNZ071>073-080-081-089-090-097-098-121100-
   Southwest Minnesota

CITY           SKY/WX    TMP DP  RH WIND       PRES   REMARKS
MONTEVIDEO     CLOUDY     9   7  92 N8        30.34R WCI  -4
GRANITE FALLS  CLOUDY    11   8  85 NW14      30.33R WCI  -4
CANBY          CLOUDY    15  11  85 W10       30.34R WCI   2
MARSHALL       CLOUDY    11   7  84 N18       30.30R WCI  -7
REDWOOD FALLS  MOCLDY    12   7  80 NW12      30.29R WCI  -2
OLIVIA         CLOUDY    12   9  85 NW14      30.29R WCI  -3
PIPESTONE      CLOUDY    14   7  73 N9        30.26R WCI   2
WINDOM         LGT SNOW  12   9  85 NW16      30.25R WCI  -4
WORTHINGTON    CLOUDY    10   7  85 NW16      30.27R WCI  -7
JACKSON        FLURRIES  14  10  85 NW17G23   30.25R WCI  -3
TRACY          FLURRIES  12   9  87 NW13      30.30R WCI  -3
SLAYTON        CLOUDY    11   9  92 NW16      30.27R WCI  -6
$$
MNZ065>067-074>077-082>085-091>093-121100-
   South Central Minnesota

CITY           SKY/WX    TMP DP  RH WIND       PRES   REMARKS
MANKATO        CLOUDY    16   9  73 NW14G21   30.23R WCI   1
NEW ULM        PTCLDY    12   9  85 NW15G21   30.26R WCI  -4
ST JAMES       CLOUDY    16  12  86 NW15      30.27R WCI   1
FAIRMONT       CLOUDY    16  10  79 NW18      30.23R WCI  -1
GLENCOE        PTCLDY    15  11  86 NW12      30.25R WCI   1
FARIBAULT        N/A     14  10  85 W8        30.21S WCI   3
OWATONNA       CLOUDY    14  10  85 NW10      30.20R WCI   1
WASECA         CLOUDY    14  12  92 NW12      30.23R WCI   0
ALBERT LEA     MOCLDY    14  12  92 NW6       30.19R WCI   5
$$
MNZ078>079-086>088-094>096-121100-
   Southeast Minnesota

CITY           SKY/WX    TMP DP  RH WIND       PRES   REMARKS
ROCHESTER      CLOUDY    12   8  84 NW14      30.16S WCI  -3
RED WING       CLOUDY    12   9  85 NW6       30.20R WCI   3
STANTON        CLOUDY    14  10  82 W7        30.20S WCI   4
DODGE CENTER   CLOUDY    12   9  85 NW9       30.17R WCI   0
WINONA         CLOUDY    16  10  79 NW3       30.21R
AUSTIN         FLURRIES  12  10  92 NW10      30.18R WCI  -1
PRESTON        CLOUDY    12   8  85 NW9       30.16R WCI  -1
$$
ABBREVIATIONS USED IN REMARKS
   TC - TEMPERATURES IN CELSIUS
  WCI - WIND CHILL INDEX
   HX - HEAT INDEX
  VSB - VISIBILITY
$$



USA.gov is the U.S. government's official web portal to all federal, state and local government web resources and services.